W4GHW Weather Reports


Display with metric or nautical units.
time (UTC)temp
F
wind
direction
speed
MPH
gust
MPH
rain 1hr
in
rain 24hr
in
rain mn
in
humidity
%
barometer
mb
20260506171004 84 275 4.0 10.0 0.00 0.00 0.00 48 1017.4
20260506170004 85 286 5.0 10.0 0.00 0.00 0.00 49 1017.6
20260506164004 84 257 5.0 12.0 0.00 0.00 0.00 50 1017.9
20260506155003 81 214 3.0 10.0 0.00 0.00 0.00 58 1018.0
20260506154004 81 240 3.0 9.0 0.00 0.00 0.00 58 1017.9
20260506153004 81 260 6.0 12.0 0.00 0.00 0.00 58 1018.0
20260506152004 81 252 5.0 12.0 0.00 0.00 0.00 61 1017.9
20260506151004 79 215 4.0 10.0 0.00 0.00 0.00 64 1018.1
20260506150004 79 236 4.0 10.0 0.00 0.00 0.00 65 1018.0
20260506145004 78 229 2.0 7.0 0.00 0.00 0.00 66 1018.0
20260506143004 77 222 3.0 9.0 0.00 0.00 0.00 69 1017.7
20260506142004 76 250 2.0 7.0 0.00 0.00 0.00 71 1017.8
20260506141004 75 207 2.0 8.0 0.00 0.00 0.00 74 1017.6
20260506140004 75 261 3.0 10.0 0.00 0.00 0.00 72 1017.8
20260506135004 75 186 3.0 7.0 0.00 0.00 0.00 74 1017.4
20260506134004 73 171 3.0 6.0 0.00 0.00 0.00 78 1017.3
20260506133004 71 219 3.0 7.0 0.00 0.00 0.00 81 1017.3
20260506132004 70 197 2.0 7.0 0.00 0.00 0.00 84 1017.3
20260506131004 68 128 2.0 10.0 0.00 0.00 0.00 86 1017.1
20260506130005 67 181 2.0 8.0 0.00 0.00 0.00 89 1017.2
20260506124004 66 191 2.0 10.0 0.00 0.00 0.00 90 1016.9
20260506123004 65 191 2.0 10.0 0.00 0.00 0.00 91 1016.9
20260506120004 64 139 2.0 9.0 0.00 0.00 0.00 91 1016.7
20260506115004 64 144 3.0 12.0 0.00 0.00 0.00 91 1016.5
20260506112004 63 136 1.0 6.0 0.00 0.00 0.00 90 1016.2
20260506111004 63 164 3.0 8.0 0.00 0.00 0.00 90 1015.9
20260506110004 63 219 2.0 6.0 0.00 0.00 0.00 90 1016.0
20260506105004 63 166 3.0 8.0 0.00 0.00 0.00 89 1015.6
20260506104004 63 155 3.0 6.0 0.00 0.00 0.00 89 1015.5
20260506103004 63 148 1.0 5.0 0.00 0.00 0.00 88 1015.3
20260506102004 62 155 2.0 7.0 0.00 0.00 0.00 88 1015.3
20260506101004 62 146 2.0 6.0 0.00 0.00 0.00 87 1015.3
20260506100004 62 154 1.0 5.0 0.00 0.00 0.00 87 1015.4
20260506095005 62 136 1.0 3.0 0.00 0.00 0.00 86 1015.3
20260506094004 62 142 0.0 3.0 0.00 0.00 0.00 86 1015.4
20260506093004 62 121 0.0 2.0 0.00 0.00 0.00 85 1015.5
20260506092005 63 127 0.0 1.0 0.00 0.00 0.00 85 1015.7
20260506091004 63 127 0.0 2.0 0.00 0.00 0.00 84 1015.7
20260506090004 63 192 0.0 2.0 0.00 0.00 0.00 84 1015.7
20260506085004 63 140 1.0 2.0 0.00 0.00 0.00 84 1015.5
20260506084005 64 139 0.0 2.0 0.00 0.00 0.00 83 1015.6
20260506083004 64 123 1.0 2.0 0.00 0.00 0.00 83 1015.6
20260506082004 64 123 1.0 2.0 0.00 0.00 0.00 83 1015.7
20260506081005 64 123 1.0 2.0 0.00 0.00 0.00 82 1015.5
20260506073004 65 239 1.0 5.0 0.00 0.00 0.00 81 1015.4
20260506072005 65 230 1.0 6.0 0.00 0.00 0.00 81 1015.5
20260506071005 65 239 1.0 3.0 0.00 0.00 0.00 81 1015.6
20260506062004 65 190 2.0 6.0 0.00 0.00 0.00 78 1015.5
20260506061005 65 153 1.0 3.0 0.00 0.00 0.00 78 1015.6
20260506051005 67 200 2.0 3.0 0.00 0.00 0.00 74 1016.1
20260506045004 68 225 1.0 3.0 0.00 0.00 0.00 72 1016.1
20260506044004 68 214 1.0 3.0 0.00 0.00 0.00 71 1016.2
20260506043004 68 223 2.0 3.0 0.00 0.00 0.00 70 1016.2
20260506042004 69 214 1.0 3.0 0.00 0.00 0.00 69 1016.4
20260506041004 69 213 2.0 3.0 0.00 0.00 0.00 69 1016.4
20260506040004 69 221 1.0 3.0 0.00 0.00 0.00 68 1016.3
20260506035005 69 211 1.0 3.0 0.00 0.00 0.00 67 1016.2
20260506034004 70 225 1.0 3.0 0.00 0.00 0.00 66 1016.1
20260506033004 70 205 1.0 3.0 0.00 0.00 0.00 65 1016.0
20260506032004 70 201 1.0 3.0 0.00 0.00 0.00 64 1016.1
20260506030004 70 172 1.0 3.0 0.00 0.00 0.00 63 1016.2
20260506025004 70 266 1.0 5.0 0.00 0.00 0.00 62 1016.1
20260506024004 70 233 2.0 5.0 0.00 0.00 0.00 62 1016.1
20260506022004 69 196 0.0 2.0 0.00 0.00 0.00 62 1016.0
20260506021004 70 250 0.0 1.0 0.00 0.00 0.00 62 1016.0
20260506020004 70 250 0.0 0.0 0.00 0.00 0.00 61 1015.8
20260506014004 71 250 0.0 0.0 0.00 0.00 0.00 59 1015.6
20260506013004 72 250 0.0 0.0 0.00 0.00 0.00 58 1015.6
20260506012004 72 250 0.0 0.0 0.00 0.00 0.00 56 1015.6
20260506011005 73 250 0.0 0.0 0.00 0.00 0.00 55 1015.6
20260506010004 74 250 0.0 1.0 0.00 0.00 0.00 53 1015.5
20260506005005 75 250 0.0 0.0 0.00 0.00 0.00 52 1015.5
20260506004004 76 250 0.0 0.0 0.00 0.00 0.00 49 1015.3
20260506003004 77 250 0.0 2.0 0.00 0.00 0.00 47 1015.1
20260506002005 78 250 0.0 3.0 0.00 0.00 0.00 46 1015.0
20260506001004 80 218 1.0 3.0 0.00 0.00 0.00 42 1014.7
20260505235004 81 231 2.0 3.0 0.00 0.00 0.00 40 1014.9
20260505233004 82 244 2.0 8.0 0.00 0.00 0.00 38 1014.9
20260505232004 83 177 1.0 5.0 0.00 0.00 0.00 37 1014.8
20260505231004 84 213 3.0 7.0 0.00 0.00 0.00 36 1014.7
20260505230003 85 201 1.0 9.0 0.00 0.00 0.00 35 1014.7
20260505225004 85 193 2.0 7.0 0.00 0.00 0.00 35 1014.7
20260505224004 85 200 4.0 9.0 0.00 0.00 0.00 35 1014.9
20260505223004 85 230 2.0 8.0 0.00 0.00 0.00 35 1015.1
20260505222003 85 247 3.0 10.0 0.00 0.00 0.00 33 1015.1
20260505220004 86 171 2.0 7.0 0.00 0.00 0.00 32 1014.9
20260505215004 86 243 2.0 12.0 0.00 0.00 0.00 31 1015.0
20260505213004 87 187 5.0 10.0 0.00 0.00 0.00 31 1015.1
20260505212004 87 186 3.0 8.0 0.00 0.00 0.00 30 1015.1
20260505211004 87 136 1.0 7.0 0.00 0.00 0.00 33 1015.1
20260505205004 86 136 3.0 10.0 0.00 0.00 0.00 32 1015.2
20260505204004 85 236 4.0 12.0 0.00 0.00 0.00 32 1015.2
20260505203004 85 143 6.0 12.0 0.00 0.00 0.00 31 1015.5
20260505202004 85 118 3.0 12.0 0.00 0.00 0.00 32 1015.4
20260505201004 86 237 3.0 14.0 0.00 0.00 0.00 34 1015.7
20260505195004 85 211 3.0 10.0 0.00 0.00 0.00 36 1015.9
20260505194004 85 204 4.0 10.0 0.00 0.00 0.00 37 1015.9
20260505193004 85 255 2.0 8.0 0.00 0.00 0.00 39 1016.1
20260505191004 85 159 3.0 10.0 0.00 0.00 0.00 39 1016.6
20260505190004 85 232 4.0 10.0 0.00 0.00 0.00 38 1016.7
20260505184004 84 152 3.0 8.0 0.00 0.00 0.00 39 1017.0
20260505183004 83 172 2.0 10.0 0.00 0.00 0.00 39 1017.0
20260505181003 82 227 3.0 13.0 0.00 0.00 0.00 41 1017.0
20260505180004 83 194 4.0 12.0 0.00 0.00 0.00 39 1017.0
20260505175004 83 167 2.0 13.0 0.00 0.00 0.00 41 1016.9
20260505174004 83 187 3.0 14.0 0.00 0.00 0.00 42 1017.2
20260505173004 82 160 5.0 10.0 0.00 0.00 0.00 42 1017.5
20260505172005 81 184 4.0 12.0 0.00 0.00 0.00 42 1017.4